Elk Mountain, WY

9:05 PM MST on November 17, 2019 (GMT -0700)
Elk Mountain

Weather History for KEHY - October, 2019

Change the Weather History Date:

Monday, October 21, 2019

  Actual Average (WUND) Record (WUND)
Temperature  
Mean Temperature 30 °F -  
Max Temperature 35 °F - - (-1)
Min Temperature 26 °F - - (-1)
Degree Days  
Heating Degree Days 34    
Moisture  
Dew Point 21 °F    
Average Humidity 68    
Maximum Humidity 80    
Minimum Humidity 55    
Precipitation  
Precipitation 0.01 in - - ()
Sea Level Pressure  
Sea Level Pressure 30.00 in    
Wind  
Wind Speed 19 mph ()    
Max Wind Speed 25 mph    
Max Gust Speed 33 mph    
Visibility 9.9 miles    
Events      
Averages and records for this station are not official NWS values.
T = Trace of Precipitation, MM = Missing Value Source: Averaged Metar Reports

Daily Weather History Graph

Daily Weather History Graph

Search for Another Location

Airport or City:

Astronomy

Oct. 21, 2019 Rise Set
Actual Time 7:24 AM MDT 6:15 PM MDT
Civil Twilight 6:56 AM MDT 6:43 PM MDT
Nautical Twilight 6:24 AM MDT 7:16 PM MDT
Astronomical Twilight 5:51 AM MDT 7:48 PM MDT
Moon No Moon Rise 2:47 PM MDT (10/21)
Length of Visible Light 11h 47m
Length of Day
10h 50m
Waning Gibbous, 47% of the Moon is Illuminated
Oct 21
Waning Gibbous
Oct 27
New
Nov 4
First Quarter
Nov 12
Full
Nov 19
Last Quarter

Hourly Weather History & Observations

Time (MDT) Temp. Windchill Dew Point Humidity Pressure Visibility Wind Dir Wind Speed Gust Speed Precip Events Conditions
12:10 AM 28.4 °F 15.8 °F 19.4 °F 69% 29.93 in 10.0 mi West 18.4 mph - N/A   Overcast
12:30 AM 26.6 °F 12.4 °F 17.6 °F 69% 29.93 in 10.0 mi West 21.9 mph 25.3 mph N/A   Overcast
1:10 AM 28.4 °F 14.7 °F 19.4 °F 69% 29.93 in 10.0 mi WSW 21.9 mph 26.5 mph N/A   Overcast
1:30 AM 26.6 °F 13.4 °F 19.4 °F 74% 29.93 in 10.0 mi WSW 18.4 mph 27.6 mph N/A   Overcast
1:50 AM 26.6 °F 12.0 °F 19.4 °F 74% 29.93 in 10.0 mi WSW 23.0 mph 27.6 mph N/A   Overcast
2:10 AM 26.6 °F 11.4 °F 19.4 °F 74% 29.93 in 10.0 mi WSW 25.3 mph 28.8 mph N/A   Overcast
2:30 AM 26.6 °F 12.4 °F 19.4 °F 74% 29.93 in 10.0 mi West 21.9 mph 29.9 mph N/A   Overcast
2:50 AM 26.6 °F 12.0 °F 19.4 °F 74% 29.92 in 10.0 mi WSW 23.0 mph 28.8 mph N/A   Mostly Cloudy
3:10 AM 26.6 °F 11.7 °F 19.4 °F 74% 29.91 in 10.0 mi West 24.2 mph 31.1 mph N/A   Mostly Cloudy
3:30 AM 26.6 °F 12.0 °F 19.4 °F 74% 29.91 in 10.0 mi WSW 23.0 mph 28.8 mph N/A   Mostly Cloudy
3:50 AM 26.6 °F 12.4 °F 19.4 °F 74% 29.91 in 10.0 mi WSW 21.9 mph 28.8 mph N/A   Mostly Cloudy
4:10 AM 26.6 °F 11.7 °F 19.4 °F 74% 29.91 in 10.0 mi West 24.2 mph 33.4 mph N/A   Overcast
4:30 AM 26.6 °F 12.4 °F 19.4 °F 74% 29.91 in 10.0 mi WSW 21.9 mph 29.9 mph N/A   Overcast
4:50 AM 26.6 °F 12.7 °F 17.6 °F 69% 29.91 in 10.0 mi WSW 20.7 mph 29.9 mph N/A   Mostly Cloudy
5:10 AM 26.6 °F 12.4 °F 17.6 °F 69% 29.91 in 10.0 mi WSW 21.9 mph 26.5 mph N/A   Overcast
5:50 AM 26.6 °F 12.4 °F 17.6 °F 69% 29.92 in 10.0 mi WSW 21.9 mph 28.8 mph N/A   Overcast
6:10 AM 26.6 °F 12.7 °F 17.6 °F 69% 29.93 in 10.0 mi WSW 20.7 mph 27.6 mph N/A   Overcast
6:30 AM 26.6 °F 11.7 °F 19.4 °F 74% 29.93 in 10.0 mi WSW 24.2 mph 31.1 mph N/A   Overcast
6:50 AM 26.6 °F 11.4 °F 17.6 °F 69% 29.92 in 10.0 mi WSW 25.3 mph 31.1 mph N/A   Mostly Cloudy
7:10 AM 26.6 °F 12.7 °F 17.6 °F 69% 29.92 in 10.0 mi WSW 20.7 mph 28.8 mph N/A   Scattered Clouds
7:30 AM 26.6 °F 11.4 °F 19.4 °F 74% 29.93 in 10.0 mi WSW 25.3 mph 32.2 mph N/A   Mostly Cloudy
7:50 AM 26.6 °F 12.0 °F 19.4 °F 74% 29.94 in 10.0 mi WSW 23.0 mph 29.9 mph N/A   Overcast
8:10 AM 26.6 °F 13.1 °F 19.4 °F 74% 29.95 in 10.0 mi WSW 19.6 mph - N/A   Overcast
8:30 AM 26.6 °F 13.8 °F 19.4 °F 74% 29.96 in 10.0 mi WSW 17.3 mph 27.6 mph N/A   Overcast
8:50 AM 28.4 °F 16.2 °F 19.4 °F 69% 29.96 in 10.0 mi West 17.3 mph 25.3 mph N/A   Overcast
9:10 AM 28.4 °F 15.8 °F 21.2 °F 74% 29.98 in 10.0 mi West 18.4 mph 23.0 mph N/A   Overcast
9:30 AM 28.4 °F 15.8 °F 21.2 °F 74% 29.98 in 10.0 mi West 18.4 mph 23.0 mph N/A   Overcast
9:50 AM 28.4 °F 16.2 °F 21.2 °F 74% 29.98 in 10.0 mi West 17.3 mph 24.2 mph N/A   Overcast
10:10 AM 30.2 °F 18.1 °F 21.2 °F 69% 29.99 in 7.0 mi West 18.4 mph 25.3 mph N/A   Overcast
10:30 AM 30.2 °F 18.1 °F 21.2 °F 69% 29.99 in 5.0 mi West 18.4 mph 25.3 mph N/A   Overcast
10:50 AM 30.2 °F 17.8 °F 23.0 °F 75% 29.99 in 10.0 mi West 19.6 mph 26.5 mph N/A   Overcast
11:10 AM 32.0 °F 20.1 °F 23.0 °F 69% 30.00 in 10.0 mi West 19.6 mph 25.3 mph N/A   Overcast
11:30 AM 32.0 °F 20.8 °F 23.0 °F 69% 30.01 in 10.0 mi West 17.3 mph 25.3 mph 0.01 in   Overcast
11:50 AM 32.0 °F 20.8 °F 23.0 °F 69% 30.01 in 10.0 mi West 17.3 mph 25.3 mph 0.01 in   Overcast
12:10 PM 32.0 °F 20.5 °F 23.0 °F 69% 30.01 in 10.0 mi WSW 18.4 mph 23.0 mph N/A   Overcast
12:30 PM 32.0 °F 20.1 °F 23.0 °F 69% 30.01 in 10.0 mi WSW 19.6 mph 23.0 mph N/A   Mostly Cloudy
1:10 PM 33.8 °F 22.2 °F 21.2 °F 60% 30.01 in 10.0 mi West 20.7 mph - N/A   Mostly Cloudy
1:30 PM 33.8 °F 21.6 °F 21.2 °F 60% 30.01 in 10.0 mi West 23.0 mph 27.6 mph N/A   Mostly Cloudy
1:50 PM 33.8 °F 21.9 °F 23.0 °F 65% 30.01 in 10.0 mi West 21.9 mph 28.8 mph N/A   Overcast
2:10 PM 33.8 °F 21.6 °F 23.0 °F 65% 30.01 in 10.0 mi WSW 23.0 mph 31.1 mph N/A   Mostly Cloudy
2:30 PM 33.8 °F 22.8 °F 23.0 °F 65% 30.01 in 10.0 mi WSW 18.4 mph - N/A   Mostly Cloudy
2:50 PM 33.8 °F 21.9 °F 23.0 °F 65% 30.00 in 10.0 mi WSW 21.9 mph 25.3 mph N/A   Overcast
3:10 PM 32.0 °F 20.5 °F 23.0 °F 69% 30.01 in 10.0 mi WSW 18.4 mph 25.3 mph N/A   Overcast
3:30 PM 33.8 °F 25.3 °F 24.8 °F 70% 30.02 in 10.0 mi WSW 11.5 mph 24.2 mph N/A   Overcast
3:50 PM 35.6 °F 27.1 °F 23.0 °F 60% 30.02 in 10.0 mi WSW 12.7 mph - N/A   Overcast
4:10 PM 33.8 °F 26.4 °F 23.0 °F 65% 30.02 in 10.0 mi WSW 9.2 mph - N/A   Overcast
4:30 PM 33.8 °F 22.8 °F 26.6 °F 75% 30.03 in 10.0 mi WSW 18.4 mph - N/A   Overcast
4:50 PM 32.0 °F 20.1 °F 24.8 °F 75% 30.04 in 10.0 mi WSW 19.6 mph 24.2 mph N/A   Overcast
5:10 PM 32.0 °F 19.5 °F 23.0 °F 69% 30.04 in 10.0 mi WSW 21.9 mph 31.1 mph N/A   Overcast
5:30 PM 32.0 °F 21.6 °F 26.6 °F 80% 30.04 in 10.0 mi WSW 15.0 mph - N/A   Overcast
5:50 PM 32.0 °F 21.6 °F 24.8 °F 75% 30.05 in 10.0 mi West 15.0 mph 24.2 mph N/A   Overcast
6:10 PM 32.0 °F 23.6 °F 23.0 °F 69% 30.05 in 10.0 mi WNW 10.4 mph 19.6 mph N/A   Mostly Cloudy
6:30 PM 32.0 °F 23.6 °F 26.6 °F 80% 30.06 in 10.0 mi NW 10.4 mph - N/A   Overcast
6:50 PM 32.0 °F 21.2 °F 26.6 °F 80% 30.07 in 10.0 mi WNW 16.1 mph 19.6 mph N/A   Overcast
7:10 PM 32.0 °F 21.2 °F 23.0 °F 69% 30.07 in 10.0 mi WNW 16.1 mph 21.9 mph N/A   Overcast
7:30 PM 32.0 °F 22.1 °F 23.0 °F 69% 30.08 in 10.0 mi West 13.8 mph - N/A   Overcast
7:50 PM 32.0 °F 22.1 °F 21.2 °F 64% 30.09 in 10.0 mi WSW 13.8 mph 19.6 mph N/A   Overcast
8:10 PM 32.0 °F 19.8 °F 19.4 °F 60% 30.10 in 10.0 mi WSW 20.7 mph 25.3 mph N/A   Overcast
8:30 PM 32.0 °F 20.5 °F 19.4 °F 60% 30.11 in 10.0 mi WSW 18.4 mph - N/A   Overcast
8:50 PM 32.0 °F 20.1 °F 17.6 °F 55% 30.12 in 10.0 mi WSW 19.6 mph 23.0 mph N/A   Mostly Cloudy
9:10 PM 32.0 °F 19.8 °F 17.6 °F 55% 30.13 in 10.0 mi WSW 20.7 mph - N/A   Scattered Clouds
9:30 PM 32.0 °F 19.2 °F 17.6 °F 55% 30.13 in 10.0 mi West 23.0 mph 29.9 mph N/A   Scattered Clouds
9:50 PM 32.0 °F 19.2 °F 17.6 °F 55% 30.13 in 10.0 mi WSW 23.0 mph 27.6 mph N/A   Mostly Cloudy
10:10 PM 32.0 °F 19.2 °F 17.6 °F 55% 30.14 in 10.0 mi WSW 23.0 mph 28.8 mph N/A   Mostly Cloudy
10:30 PM 32.0 °F 20.1 °F 17.6 °F 55% 30.15 in 10.0 mi WSW 19.6 mph - N/A   Overcast
10:50 PM 32.0 °F 19.8 °F 17.6 °F 55% 30.15 in 10.0 mi West 20.7 mph 26.5 mph N/A   Overcast
11:30 PM 30.2 °F 16.8 °F 17.6 °F 60% 30.15 in 10.0 mi West 23.0 mph 29.9 mph N/A   Mostly Cloudy
11:50 PM 30.2 °F 17.4 °F 19.4 °F 64% 30.15 in 10.0 mi West 20.7 mph 29.9 mph N/A   Clear